FENGYUN 1C DEB, 33674

Orbit data source: Space-Track

FENGYUN 1C DEB, 33674 is space debris in SSO originally from a launch on Mon, 10 May 1999 UTC launched from the Taiyaun Space Center, China (TSC). Fengyun 1C debris stems from the Chinese weather satellite Fengyun-1C, which was intentionally destroyed by a Chinese anti-satellite missile in 2007. This event dramatically increased the amount of space debris, with thousands of trackable fragments posing hazards to satellites and human spaceflight. The Fengyun 1C debris cloud has become a focal point in discussions about space sustainability and the need for international regulations to prevent the creation of new debris.

Loading next visibility...
Identifier
33674, 1999-025DFK
Orbit
SSO
Country
Flag of CNCN / PRC
Related business
Manufacturer
Unknown
Mission
Spacecraft
Bus & Motor
Unknown
Mass
Unknown
Launch date (UTC)
1999-05-10 (27 years ago)
Launch vehicle
Unknown
Launch site
Taiyaun Space Center, China (TSC)
Object type
Payload
Rocket body
Debris
Shape & HBR
Unknown shape, 0.1 m
Radar Cross Section
Medium (>0.1 m² and <1 m²)

Expand to show TLE details & history
Last TLE update: 4 days ago

TLE from 4 days ago
0 FENGYUN 1C DEB
1 33674U 99025DFK 26147.54675572  .00001819  00000-0  15772-2 0  9992
2 33674  98.5939 186.8838 0212636 153.8964 207.3097 13.77508917906478
Epoch: 2026-05-27T13:07Z
TLE epoch observation values (Epoch: 2026-05-27T13:07:19.694Z)
Latitude
-0.00005°
Longitude
104.94747°
Altitude
1,115.189 km
Speed
7.225 km/s
True Right ascension
12h 27m 32s
True Declination
0° 00' 00"
Sunlit
Object was in daylight at epoch
Visualization orbit readout
Latitude
Unknown
Longitude
Unknown
Altitude
Unknown
Speed
Unknown
Apparent Right ascension
Unknown
Apparent Declination
Unknown
Sunlit
N/A
Visualization observer readout
Local Sidereal Time
20:14:28
Azimuth
Unknown
Elevation
Unknown
Doppler factor
Unknown
Orbital elements
Apogee altitude
1,126.191 km
Perigee altitude
813.697 km
Semi-major axis
7,348.081 km
Eccentricity
0.02126
Inclination
98.5939°
RAAN
186.8838°
Arg. of periapsis
153.8964°
True anomaly
206.21766°
Mean anomaly
207.3097°
Eccentric anomaly
206.76113°
Mean motion
3.44574 °/min
Orbital period
104.48 mins
BSTAR
0.0015772
Loading maneuver chart data...
Computing Atmospheric mass density...
Loading historical data...
Loading historical data...
Loading historical data...
Loading historical data...
Loading historical data...
Loading historical data...
Loading historical data...

Documentation

Showing up to 5 results
|